This is the latest recevied weather packets stored in our database for station/object KC5DAQ-22. If no packets are shown the sender has not sent any weather packets the latest 1 day(s).
| Time | Temp. | Humidity | Pressure | Rain* | Wind** | Luminosity | Snow |
|---|---|---|---|---|---|---|---|
| 1777981920 | 23.33° C | 89% | 1006.6 hPa | 0 mm | 2.68 m/s, 49° | 12 W/m² | - |
| 1777981863 | 23.33° C | 89% | 1006.6 hPa | 0 mm | 2.68 m/s, 44° | 11 W/m² | - |
| 1777981801 | 23.33° C | 89% | 1006.7 hPa | 0 mm | 2.24 m/s, 34° | 11 W/m² | - |
| 1777981741 | 23.33° C | 89% | 1006.7 hPa | 0 mm | 2.68 m/s, 56° | 9 W/m² | - |
| 1777981681 | 23.33° C | 89% | 1006.8 hPa | 0 mm | 4.02 m/s, 44° | 9 W/m² | - |
| 1777981622 | 23.33° C | 89% | 1006.9 hPa | 0 mm | 3.58 m/s, 0° | 9 W/m² | - |
| 1777981561 | 23.33° C | 89% | 1006.9 hPa | 0 mm | 2.68 m/s, 41° | 9 W/m² | - |
| 1777981500 | 23.33° C | 89% | 1006.9 hPa | 0 mm | 2.68 m/s, 0° | 7 W/m² | - |
| 1777981442 | 23.33° C | 89% | 1006.9 hPa | 0 mm | 2.68 m/s, 41° | 5 W/m² | - |
| 1777981381 | 22.78° C | 89% | 1007 hPa | 0 mm | 2.68 m/s, 0° | 5 W/m² | - |
| 1777981321 | 23.33° C | 89% | 1007 hPa | 0 mm | 2.24 m/s, 0° | 5 W/m² | - |
| 1777981260 | 23.33° C | 89% | 1007.1 hPa | 0 mm | 2.24 m/s, 0° | 5 W/m² | - |
| 1777981200 | 22.78° C | 89% | 1007.1 hPa | 0 mm | 2.24 m/s, 0° | 5 W/m² | - |
| 1777981140 | 22.78° C | 89% | 1007 hPa | 0 mm | 1.79 m/s, 0° | 0 W/m² | - |
| 1777981080 | 23.33° C | 89% | 1007 hPa | 0 mm | 0.89 m/s, 0° | 0 W/m² | - |
| 1777981020 | 22.78° C | 89% | 1007.1 hPa | 0 mm | 1.79 m/s, 0° | 0 W/m² | - |
| 1777980960 | 22.78° C | 89% | 1006.9 hPa | 0 mm | 2.68 m/s, 32° | 0 W/m² | - |
| 1777980901 | 22.78° C | 89% | 1007 hPa | 0 mm | 1.79 m/s, 28° | 0 W/m² | - |
| 1777980841 | 22.78° C | 89% | 1006.9 hPa | 0 mm | 1.79 m/s, 34° | 0 W/m² | - |
| 1777980780 | 22.78° C | 89% | 1006.9 hPa | 0 mm | 2.24 m/s, 42° | 0 W/m² | - |
| 1777980720 | 22.78° C | 90% | 1006.9 hPa | 0 mm | 2.24 m/s, 41° | 0 W/m² | - |
| 1777980660 | 22.78° C | 89% | 1006.9 hPa | 0 mm | 2.24 m/s, 0° | 0 W/m² | - |
| 1777980602 | 22.78° C | 89% | 1006.9 hPa | 0 mm | 2.68 m/s, 0° | 0 W/m² | - |
| 1777980541 | 22.78° C | 89% | 1006.9 hPa | 0 mm | 2.24 m/s, 39° | 0 W/m² | - |
| 1777980480 | 22.78° C | 89% | 1006.9 hPa | 0 mm | 2.24 m/s, 47° | 0 W/m² | - |
* Rain latest hour (hover to see other rain measurements)
** Current wind speed in m/s (hover to see current wind gust speed)